Asheville, NC

9:48 PM EST on December 10, 2019 (GMT -0500)
Asheville Regional

Weather History for KAVL - September, 2019

Change the Weather History Date:

Wednesday, September 4, 2019

  Actual Average Record
Temperature  
Mean Temperature 77 °F 70 °F  
Max Temperature 90 °F 80 °F 95 °F (1954)
Min Temperature 63 °F 60 °F 45 °F (1952)
Degree Days  
Heating Degree Days 0 0  
Month to date heating degree days 0 0  
Since 1 July heating degree days 0 2  
Cooling Degree Days 12 5  
Month to date cooling degree days 36 23  
Year to date cooling degree days 1042 780  
Growing Degree Days 26 (Base 50)    
Moisture  
Dew Point 62 °F    
Average Humidity 64    
Maximum Humidity 93    
Minimum Humidity 35    
Precipitation  
Precipitation 0.00 in 0.13 in 1.87 in (1904)
Month to date precipitation 0.00 0.54  
Year to date precipitation 41.71 32.15  
Snow  
Snow 0.00 in 0.00 in 0.00 in ()
Month to date snowfall 0.0 0.0  
Since 1 July snowfall 0.0 0.0  
Since 1 September snowfall 0.0 0.0  
Snow Depth 0.00 in    
Sea Level Pressure  
Sea Level Pressure 30.01 in    
Wind  
Wind Speed 7 mph (NNW)    
Max Wind Speed 15 mph    
Max Gust Speed 22 mph    
Visibility 10 miles    
Events      
T = Trace of Precipitation, MM = Missing Value Source: NWS Daily Summary

Daily Weather History Graph

Daily Weather History Graph

Search for Another Location

Airport or City:

Astronomy

Sep. 04, 2019 Rise Set
Actual Time 7:04 AM EDT 7:53 PM EDT
Civil Twilight 6:38 AM EDT 8:19 PM EDT
Nautical Twilight 6:08 AM EDT 8:49 PM EDT
Astronomical Twilight 5:36 AM EDT 9:21 PM EDT
Moon 12:52 PM EDT (9/4) 11:40 PM EDT (9/4)
Length of Visible Light 13h 40m
Length of Day
12h 48m
Waxing Crescent, 34% of the Moon is Illuminated
Sep 4
Waxing Crescent
Sep 5
First Quarter
Sep 14
Full
Sep 21
Last Quarter
Sep 28
New

Hourly Weather History & Observations

Time (EDT) Temp. Heat Index Dew Point Humidity Pressure Visibility Wind Dir Wind Speed Gust Speed Precip Events Conditions
12:54 AM 69.1 °F - 64.9 °F 87% 30.03 in 10.0 mi Calm Calm - N/A   Clear
1:54 AM 66.9 °F - 64.0 °F 90% 30.03 in 10.0 mi Calm Calm - N/A   Mostly Cloudy
2:54 AM 66.0 °F - 63.0 °F 90% 30.01 in 9.0 mi Calm Calm - N/A   Clear
3:54 AM 64.9 °F - 62.1 °F 90% 30.00 in 9.0 mi Calm Calm - N/A   Clear
4:54 AM 66.0 °F - 63.0 °F 90% 30.03 in 9.0 mi NNW 5.8 mph - N/A   Clear
5:54 AM 66.0 °F - 63.0 °F 90% 30.04 in 10.0 mi NNW 5.8 mph - N/A   Clear
6:54 AM 63.0 °F - 61.0 °F 93% 30.07 in 8.0 mi Calm Calm - N/A   Clear
7:54 AM 66.0 °F - 62.1 °F 87% 30.08 in 9.0 mi NW 3.5 mph - N/A   Clear
8:54 AM 69.1 °F - 64.0 °F 84% 30.08 in 10.0 mi NNW 8.1 mph - N/A   Clear
9:54 AM 73.9 °F - 64.0 °F 71% 30.07 in 10.0 mi North 8.1 mph - N/A   Clear
10:54 AM 79.0 °F - 64.9 °F 62% 30.07 in 10.0 mi North 6.9 mph - N/A   Clear
11:54 AM 82.9 °F 84.6 °F 64.9 °F 54% 30.04 in 10.0 mi North 5.8 mph - N/A   Clear
12:54 PM 84.9 °F 86.1 °F 64.0 °F 49% 30.02 in 10.0 mi North 6.9 mph - N/A   Clear
1:54 PM 87.1 °F 87.8 °F 63.0 °F 44% 30.01 in 10.0 mi NNW 9.2 mph - N/A   Clear
2:54 PM 89.1 °F 90.0 °F 63.0 °F 42% 29.99 in 10.0 mi North 11.5 mph 23.0 mph N/A   Clear
3:54 PM 89.1 °F 90.0 °F 63.0 °F 42% 29.97 in 10.0 mi North 9.2 mph 17.3 mph N/A   Clear
4:54 PM 88.0 °F 88.4 °F 62.1 °F 42% 29.96 in 10.0 mi NW 12.7 mph - N/A   Clear
5:54 PM 88.0 °F 87.6 °F 60.1 °F 39% 29.96 in 10.0 mi NNW 11.5 mph - N/A   Clear
6:54 PM 86.0 °F 84.7 °F 55.9 °F 36% 29.96 in 10.0 mi NNW 12.7 mph - N/A   Clear
7:54 PM 80.1 °F 80.6 °F 57.9 °F 47% 29.97 in 10.0 mi NNW 9.2 mph - N/A   Clear
8:54 PM 79.0 °F - 59.0 °F 50% 29.97 in 10.0 mi North 4.6 mph - N/A   Clear
9:54 PM 77.0 °F - 60.1 °F 56% 29.97 in 10.0 mi North 8.1 mph - N/A   Clear
10:54 PM 75.9 °F - 60.1 °F 58% 29.96 in 10.0 mi North 6.9 mph - N/A   Clear
11:54 PM 75.0 °F - 61.0 °F 62% 29.96 in 10.0 mi North 6.9 mph - N/A   Clear